Time,TemperatureF,DewpointF,PressureIn,WindDirection,WindDirectionDegrees,WindSpeedMPH,WindSpeedGustMPH,Humidity,HourlyPrecipIn,Conditions,Clouds,dailyrainin,SolarRadiationWatts/m^2,SoftwareType,DateUTC
2013-09-27 00:01:00,69.2,62.0,29.78,WSW,239,0.0,0.0,78,0.00,,,0.00,0,Custom,2013-09-27 05:01:00,
2013-09-27 00:43:00,68.8,62.0,29.78,West,280,0.0,0.0,79,0.00,,,0.00,0,Custom,2013-09-27 05:43:00,
2013-09-27 00:48:00,68.7,62.0,29.78,West,280,0.0,0.0,79,0.00,,,0.00,0,Custom,2013-09-27 05:48:00,
2013-09-27 00:53:00,68.7,62.0,29.78,WSW,248,0.0,0.0,79,0.00,,,0.00,0,Custom,2013-09-27 05:53:00,
2013-09-27 00:58:00,68.5,62.0,29.78,West,281,0.0,0.0,79,0.00,,,0.00,0,Custom,2013-09-27 05:58:00,
2013-09-27 01:03:00,68.5,62.0,29.79,WSW,254,0.0,0.0,80,0.00,,,0.00,0,Custom,2013-09-27 06:03:00,
2013-09-27 01:08:00,68.4,62.0,29.79,West,270,0.0,0.0,80,0.00,,,0.00,0,Custom,2013-09-27 06:08:00,
2013-09-27 01:13:00,68.2,62.0,29.79,West,268,0.0,0.0,79,0.00,,,0.00,0,Custom,2013-09-27 06:13:00,
2013-09-27 01:18:00,68.2,62.0,29.79,WSW,244,0.0,0.0,80,0.00,,,0.00,0,Custom,2013-09-27 06:18:00,
2013-09-27 01:23:00,68.1,62.0,29.79,West,270,0.0,0.0,80,0.00,,,0.00,0,Custom,2013-09-27 06:23:00,
2013-09-27 01:28:00,68.0,62.0,29.79,West,279,0.0,0.0,80,0.00,,,0.00,0,Custom,2013-09-27 06:28:00,
2013-09-27 01:33:00,67.8,62.0,29.80,West,262,0.0,0.0,80,0.00,,,0.00,0,Custom,2013-09-27 06:33:00,
2013-09-27 01:38:00,67.8,62.0,29.80,West,278,0.0,0.0,81,0.00,,,0.00,0,Custom,2013-09-27 06:38:00,
2013-09-27 01:43:00,67.7,62.0,29.80,West,278,0.0,0.0,81,0.00,,,0.00,0,Custom,2013-09-27 06:43:00,
2013-09-27 01:48:00,67.5,62.0,29.80,WSW,258,0.0,0.0,81,0.00,,,0.00,0,Custom,2013-09-27 06:48:00,
2013-09-27 01:53:00,67.5,62.0,29.80,WNW,287,0.0,0.0,81,0.00,,,0.00,0,Custom,2013-09-27 06:53:00,
2013-09-27 01:58:00,67.5,62.0,29.80,WNW,285,0.0,0.0,81,0.00,,,0.00,0,Custom,2013-09-27 06:58:00,
2013-09-27 02:03:00,67.4,62.0,29.80,WNW,297,0.0,0.0,81,0.00,,,0.00,0,Custom,2013-09-27 07:03:00,
2013-09-27 02:08:00,67.2,61.0,29.80,West,277,0.0,0.0,81,0.00,,,0.00,0,Custom,2013-09-27 07:08:00,
2013-09-27 02:13:00,67.2,62.0,29.80,West,272,0.0,0.0,82,0.00,,,0.00,0,Custom,2013-09-27 07:13:00,
2013-09-27 02:18:00,66.8,61.0,29.80,West,271,0.0,0.0,82,0.00,,,0.00,0,Custom,2013-09-27 07:18:00,
2013-09-27 02:23:00,66.9,61.0,29.80,WNW,292,0.0,0.0,82,0.00,,,0.00,0,Custom,2013-09-27 07:23:00,
2013-09-27 02:28:00,66.5,61.0,29.80,WNW,292,0.0,0.0,83,0.00,,,0.00,0,Custom,2013-09-27 07:28:00,
2013-09-27 02:33:00,66.4,61.0,29.80,West,272,0.0,0.0,83,0.00,,,0.00,0,Custom,2013-09-27 07:33:00,
2013-09-27 02:38:00,66.5,61.0,29.80,West,268,0.0,0.0,83,0.00,,,0.00,0,Custom,2013-09-27 07:38:00,
2013-09-27 02:43:00,66.5,62.0,29.80,WSW,237,0.0,0.0,84,0.00,,,0.00,0,Custom,2013-09-27 07:43:00,
2013-09-27 02:48:00,66.8,62.0,29.80,West,270,0.0,0.0,83,0.00,,,0.00,0,Custom,2013-09-27 07:48:00,
2013-09-27 02:51:00,66.7,62.0,29.80,WSW,243,0.0,0.0,84,0.00,,,0.00,0,Custom,2013-09-27 07:51:00,
2013-09-27 02:56:00,66.5,61.0,29.80,WSW,242,0.0,0.0,83,0.00,,,0.00,0,Custom,2013-09-27 07:56:00,
2013-09-27 03:01:00,66.5,62.0,29.80,WSW,239,0.0,0.0,84,0.00,,,0.00,0,Custom,2013-09-27 08:01:00,
2013-09-27 03:06:00,66.6,62.0,29.80,WSW,243,0.0,0.0,84,0.00,,,0.00,0,Custom,2013-09-27 08:06:00,
2013-09-27 03:11:00,66.5,61.0,29.80,WSW,243,0.0,0.0,84,0.00,,,0.00,0,Custom,2013-09-27 08:11:00,
2013-09-27 03:16:00,66.3,61.0,29.80,WSW,244,0.0,0.0,84,0.00,,,0.00,0,Custom,2013-09-27 08:16:00,
2013-09-27 03:21:00,66.1,61.0,29.80,West,279,0.0,0.0,85,0.00,,,0.00,0,Custom,2013-09-27 08:21:00,
2013-09-27 03:26:00,66.2,62.0,29.80,WNW,287,0.0,0.0,85,0.00,,,0.00,0,Custom,2013-09-27 08:26:00,
2013-09-27 03:31:00,66.1,61.0,29.80,West,266,0.0,0.0,85,0.00,,,0.00,0,Custom,2013-09-27 08:31:00,
2013-09-27 03:36:00,65.9,61.0,29.80,West,266,0.0,0.0,85,0.00,,,0.00,0,Custom,2013-09-27 08:36:00,
2013-09-27 03:41:00,66.0,62.0,29.80,West,267,0.0,0.0,85,0.00,,,0.00,0,Custom,2013-09-27 08:41:00,
2013-09-27 03:46:00,66.0,62.0,29.81,WNW,289,0.0,0.0,86,0.00,,,0.00,0,Custom,2013-09-27 08:46:00,
2013-09-27 03:51:00,65.8,61.0,29.81,West,261,0.0,0.0,85,0.00,,,0.00,0,Custom,2013-09-27 08:51:00,
2013-09-27 03:56:00,65.8,61.0,29.81,West,266,0.0,0.0,86,0.00,,,0.00,0,Custom,2013-09-27 08:56:00,
2013-09-27 04:01:00,65.7,61.0,29.81,West,268,0.0,0.0,86,0.00,,,0.00,0,Custom,2013-09-27 09:01:00,
2013-09-27 04:07:00,65.7,61.0,29.81,West,269,0.0,0.0,86,0.00,,,0.00,0,Custom,2013-09-27 09:07:00,
2013-09-27 04:12:00,65.5,61.0,29.81,West,273,0.0,0.0,86,0.00,,,0.00,0,Custom,2013-09-27 09:12:00,
2013-09-27 04:17:00,65.3,61.0,29.81,West,269,0.0,0.0,87,0.00,,,0.00,0,Custom,2013-09-27 09:17:00,
2013-09-27 04:22:00,65.4,61.0,29.81,West,270,0.0,0.0,86,0.00,,,0.00,0,Custom,2013-09-27 09:22:00,
2013-09-27 04:27:00,65.6,62.0,29.81,West,269,0.0,0.0,87,0.00,,,0.00,0,Custom,2013-09-27 09:27:00,
2013-09-27 04:32:00,65.6,61.0,29.82,SW,236,0.0,0.0,86,0.00,,,0.00,0,Custom,2013-09-27 09:32:00,
2013-09-27 04:37:00,65.4,62.0,29.81,West,276,0.0,0.0,87,0.00,,,0.00,0,Custom,2013-09-27 09:37:00,
2013-09-27 04:42:00,65.5,62.0,29.82,West,280,0.0,0.0,87,0.00,,,0.00,0,Custom,2013-09-27 09:42:00,
2013-09-27 04:47:00,65.6,62.0,29.82,West,270,0.0,0.0,87,0.00,,,0.00,0,Custom,2013-09-27 09:47:00,
2013-09-27 04:52:00,65.8,62.0,29.81,West,264,0.0,0.0,86,0.00,,,0.00,0,Custom,2013-09-27 09:52:00,
2013-09-27 04:57:00,65.8,62.0,29.82,West,277,0.0,0.0,86,0.00,,,0.00,0,Custom,2013-09-27 09:57:00,
2013-09-27 05:02:00,65.7,62.0,29.82,West,259,0.0,0.0,86,0.00,,,0.00,0,Custom,2013-09-27 10:02:00,
2013-09-27 05:07:00,65.7,62.0,29.82,West,274,0.0,0.0,86,0.00,,,0.00,0,Custom,2013-09-27 10:07:00,
2013-09-27 05:12:00,65.8,62.0,29.82,West,275,0.0,0.0,86,0.00,,,0.00,0,Custom,2013-09-27 10:12:00,
2013-09-27 05:17:00,65.9,62.0,29.82,WNW,300,0.0,0.0,86,0.00,,,0.00,0,Custom,2013-09-27 10:17:00,
2013-09-27 05:22:00,65.9,62.0,29.82,WNW,283,0.0,0.0,86,0.00,,,0.00,0,Custom,2013-09-27 10:22:00,
2013-09-27 05:27:00,65.9,62.0,29.82,West,275,0.0,0.0,86,0.00,,,0.00,0,Custom,2013-09-27 10:27:00,
2013-09-27 05:32:00,65.9,62.0,29.83,West,275,0.0,0.0,86,0.00,,,0.00,0,Custom,2013-09-27 10:32:00,
2013-09-27 05:37:00,65.8,61.0,29.82,WNW,298,0.0,0.0,85,0.00,,,0.00,0,Custom,2013-09-27 10:37:00,
2013-09-27 05:42:00,65.8,61.0,29.83,West,268,0.0,0.0,86,0.00,,,0.00,0,Custom,2013-09-27 10:42:00,
2013-09-27 05:47:00,65.7,61.0,29.83,West,278,0.0,0.0,86,0.00,,,0.00,0,Custom,2013-09-27 10:47:00,
2013-09-27 05:52:00,65.8,61.0,29.83,WSW,240,0.0,0.0,86,0.00,,,0.00,0,Custom,2013-09-27 10:52:00,
2013-09-27 05:57:00,65.7,61.0,29.83,WSW,255,0.0,0.0,86,0.00,,,0.00,0,Custom,2013-09-27 10:57:00,
2013-09-27 06:02:00,65.6,61.0,29.83,WSW,254,0.0,0.0,86,0.00,,,0.00,0,Custom,2013-09-27 11:02:00,
2013-09-27 06:07:00,65.6,61.0,29.83,West,278,0.0,0.0,86,0.00,,,0.00,0,Custom,2013-09-27 11:07:00,
2013-09-27 06:12:00,65.6,61.0,29.83,West,281,0.0,0.0,86,0.00,,,0.00,0,Custom,2013-09-27 11:12:00,
2013-09-27 06:17:00,65.2,61.0,29.83,West,281,0.0,0.0,86,0.00,,,0.00,0,Custom,2013-09-27 11:17:00,
2013-09-27 06:22:00,65.3,61.0,29.83,West,281,0.0,0.0,86,0.00,,,0.00,0,Custom,2013-09-27 11:22:00,
2013-09-27 06:27:00,65.3,61.0,29.83,West,267,0.0,0.0,86,0.00,,,0.00,0,Custom,2013-09-27 11:27:00,
2013-09-27 06:32:00,65.2,61.0,29.83,WNW,287,0.0,0.0,87,0.00,,,0.00,0,Custom,2013-09-27 11:32:00,
2013-09-27 06:37:00,65.2,61.0,29.83,West,273,0.0,0.0,87,0.00,,,0.00,0,Custom,2013-09-27 11:37:00,
2013-09-27 06:42:00,65.2,61.0,29.84,West,279,0.0,0.0,86,0.00,,,0.00,0,Custom,2013-09-27 11:42:00,
2013-09-27 06:47:00,65.1,61.0,29.84,West,281,0.0,0.0,86,0.00,,,0.00,0,Custom,2013-09-27 11:47:00,
2013-09-27 06:52:00,64.9,61.0,29.83,WNW,285,0.0,0.0,87,0.00,,,0.00,0,Custom,2013-09-27 11:52:00,
2013-09-27 06:57:00,64.6,61.0,29.84,West,281,0.0,0.0,87,0.00,,,0.00,0,Custom,2013-09-27 11:57:00,
2013-09-27 07:02:00,64.7,61.0,29.84,WNW,286,0.0,0.0,87,0.00,,,0.00,0,Custom,2013-09-27 12:02:00,
2013-09-27 07:07:00,64.6,61.0,29.84,WNW,284,0.0,0.0,87,0.00,,,0.00,0,Custom,2013-09-27 12:07:00,
2013-09-27 07:12:00,64.5,61.0,29.84,West,269,0.0,0.0,88,0.00,,,0.00,0,Custom,2013-09-27 12:12:00,
2013-09-27 07:17:00,64.6,61.0,29.84,WNW,284,0.0,0.0,87,0.00,,,0.00,8.58,Custom,2013-09-27 12:17:00,
2013-09-27 07:22:00,64.6,61.0,29.84,WNW,293,0.0,0.0,87,0.00,,,0.00,12.48,Custom,2013-09-27 12:22:00,
2013-09-27 07:27:00,64.6,61.0,29.84,WSW,246,0.0,0.0,87,0.00,,,0.00,14.82,Custom,2013-09-27 12:27:00,
2013-09-27 07:32:00,64.6,61.0,29.84,West,270,0.0,0.0,87,0.00,,,0.00,17.94,Custom,2013-09-27 12:32:00,
2013-09-27 07:37:00,64.7,61.0,29.84,West,281,0.0,0.0,87,0.00,,,0.00,21.45,Custom,2013-09-27 12:37:00,
2013-09-27 07:42:00,64.8,61.0,29.84,WNW,300,0.0,0.0,87,0.00,,,0.00,24.18,Custom,2013-09-27 12:42:00,
2013-09-27 07:47:00,65.0,61.0,29.84,West,277,0.0,0.0,87,0.00,,,0.00,27.69,Custom,2013-09-27 12:47:00,
2013-09-27 07:52:00,65.1,61.0,29.84,West,272,0.0,0.0,87,0.00,,,0.00,30.42,Custom,2013-09-27 12:52:00,
2013-09-27 07:57:00,65.6,61.0,29.84,West,265,0.0,0.0,86,0.00,,,0.00,32.37,Custom,2013-09-27 12:57:00,
2013-09-27 08:02:00,65.6,61.0,29.85,West,269,0.0,0.0,86,0.00,,,0.00,34.71,Custom,2013-09-27 13:02:00,
2013-09-27 08:07:00,65.9,61.0,29.85,West,276,0.0,0.0,85,0.00,,,0.00,40.95,Custom,2013-09-27 13:07:00,
2013-09-27 08:12:00,66.2,61.0,29.84,West,259,0.0,0.0,85,0.00,,,0.00,47.58,Custom,2013-09-27 13:12:00,
2013-09-27 08:17:00,66.5,62.0,29.85,WNW,288,0.0,0.0,85,0.00,,,0.00,51.87,Custom,2013-09-27 13:17:00,
2013-09-27 08:22:00,66.8,62.0,29.85,WNW,291,0.0,0.0,84,0.00,,,0.00,53.82,Custom,2013-09-27 13:22:00,
2013-09-27 08:27:00,67.0,62.0,29.85,West,264,0.0,0.0,83,0.00,,,0.00,58.89,Custom,2013-09-27 13:27:00,
2013-09-27 08:33:00,67.4,62.0,29.85,West,280,0.0,0.0,83,0.00,,,0.00,62.79,Custom,2013-09-27 13:33:00,
2013-09-27 08:38:00,67.9,62.0,29.85,WNW,298,0.0,0.0,82,0.00,,,0.00,78.39,Custom,2013-09-27 13:38:00,
2013-09-27 08:43:00,68.9,62.0,29.85,West,266,0.0,0.0,78,0.00,,,0.00,186.03,Custom,2013-09-27 13:43:00,
2013-09-27 08:48:00,69.8,62.0,29.85,WNW,290,0.0,0.0,76,0.00,,,0.00,203.58,Custom,2013-09-27 13:48:00,
2013-09-27 08:53:00,70.6,62.0,29.85,West,277,0.0,0.0,74,0.00,,,0.00,221.91,Custom,2013-09-27 13:53:00,
2013-09-27 08:58:00,71.0,62.0,29.85,West,259,0.0,0.0,73,0.00,,,0.00,237.9,Custom,2013-09-27 13:58:00,
2013-09-27 09:03:00,71.1,62.0,29.85,West,265,0.0,0.0,72,0.00,,,0.00,252.33,Custom,2013-09-27 14:03:00,
2013-09-27 09:08:00,71.6,62.0,29.85,WNW,290,0.0,0.0,72,0.00,,,0.00,269.88,Custom,2013-09-27 14:08:00,
2013-09-27 09:13:00,71.7,62.0,29.85,West,264,0.0,0.0,72,0.00,,,0.00,285.48,Custom,2013-09-27 14:13:00,
2013-09-27 09:18:00,72.1,62.0,29.85,West,267,0.0,0.0,71,0.00,,,0.00,301.47,Custom,2013-09-27 14:18:00,
2013-09-27 09:23:00,72.6,63.0,29.85,West,261,0.0,0.0,71,0.00,,,0.00,313.56,Custom,2013-09-27 14:23:00,
2013-09-27 09:28:00,73.2,63.0,29.85,West,275,0.0,0.0,70,0.00,,,0.00,329.16,Custom,2013-09-27 14:28:00,
2013-09-27 09:33:00,74.2,63.0,29.85,WNW,301,0.0,0.0,69,0.00,,,0.00,344.76,Custom,2013-09-27 14:33:00,
2013-09-27 09:38:00,75.1,63.0,29.85,West,265,0.0,0.0,66,0.00,,,0.00,358.8,Custom,2013-09-27 14:38:00,
2013-09-27 09:43:00,74.7,63.0,29.85,West,265,0.0,0.0,67,0.00,,,0.00,372.45,Custom,2013-09-27 14:43:00,
2013-09-27 09:48:00,75.5,64.0,29.85,WSW,254,0.0,0.0,67,0.00,,,0.00,386.1,Custom,2013-09-27 14:48:00,
2013-09-27 09:53:00,76.1,64.0,29.85,WNW,288,0.0,0.0,65,0.00,,,0.00,400.53,Custom,2013-09-27 14:53:00,
2013-09-27 09:58:00,75.6,63.0,29.85,West,270,0.0,0.0,66,0.00,,,0.00,415.74,Custom,2013-09-27 14:58:00,
2013-09-27 10:03:00,76.6,64.0,29.85,West,268,0.0,0.0,66,0.00,,,0.00,426.66,Custom,2013-09-27 15:03:00,
2013-09-27 10:08:00,77.3,64.0,29.85,WNW,288,0.0,0.0,64,0.00,,,0.00,440.7,Custom,2013-09-27 15:08:00,
2013-09-27 10:13:00,77.4,64.0,29.85,West,265,0.0,0.0,63,0.00,,,0.00,453.18,Custom,2013-09-27 15:13:00,
2013-09-27 10:18:00,77.8,63.0,29.85,West,262,0.0,0.0,61,0.00,,,0.00,468.39,Custom,2013-09-27 15:18:00,
2013-09-27 10:23:00,78.3,64.0,29.85,West,270,0.0,0.0,62,0.00,,,0.00,481.65,Custom,2013-09-27 15:23:00,
2013-09-27 10:28:00,79.7,65.0,29.85,WNW,288,0.0,0.0,61,0.00,,,0.00,495.3,Custom,2013-09-27 15:28:00,
2013-09-27 10:33:00,79.0,64.0,29.85,West,270,0.0,0.0,60,0.00,,,0.00,508.95,Custom,2013-09-27 15:33:00,
2013-09-27 10:38:00,79.5,65.0,29.85,West,269,0.0,0.0,60,0.00,,,0.00,521.43,Custom,2013-09-27 15:38:00,
2013-09-27 10:43:00,79.8,65.0,29.85,West,270,0.0,0.0,61,0.00,,,0.00,535.47,Custom,2013-09-27 15:43:00,
2013-09-27 10:48:00,80.5,64.0,29.85,West,266,0.0,0.0,58,0.00,,,0.00,537.81,Custom,2013-09-27 15:48:00,
2013-09-27 10:53:00,80.7,65.0,29.85,West,263,0.0,0.0,60,0.00,,,0.00,549.9,Custom,2013-09-27 15:53:00,
2013-09-27 10:58:00,81.2,65.0,29.85,West,264,0.0,0.0,59,0.00,,,0.00,563.16,Custom,2013-09-27 15:58:00,
2013-09-27 11:03:00,81.1,65.0,29.85,West,276,0.0,0.0,57,0.00,,,0.00,571.74,Custom,2013-09-27 16:03:00,
2013-09-27 11:08:00,80.8,64.0,29.85,West,271,0.0,0.0,58,0.00,,,0.00,583.05,Custom,2013-09-27 16:08:00,
2013-09-27 11:13:00,81.4,65.0,29.85,West,279,0.0,0.0,57,0.00,,,0.00,599.82,Custom,2013-09-27 16:13:00,
2013-09-27 11:18:00,81.5,64.0,29.85,WSW,239,0.0,0.0,56,0.00,,,0.00,609.96,Custom,2013-09-27 16:18:00,
2013-09-27 11:23:00,82.0,64.0,29.85,West,272,0.0,0.0,55,0.00,,,0.00,614.25,Custom,2013-09-27 16:23:00,
2013-09-27 11:28:00,82.8,65.0,29.85,WSW,258,0.0,0.0,56,0.00,,,0.00,621.66,Custom,2013-09-27 16:28:00,
2013-09-27 11:33:00,83.4,66.0,29.85,West,262,0.0,0.0,55,0.00,,,0.00,631.8,Custom,2013-09-27 16:33:00,
2013-09-27 11:38:00,82.5,65.0,29.85,West,265,0.0,0.0,55,0.00,,,0.00,640.38,Custom,2013-09-27 16:38:00,
2013-09-27 11:43:00,83.1,65.0,29.85,WSW,241,0.0,0.0,55,0.00,,,0.00,648.96,Custom,2013-09-27 16:43:00,
2013-09-27 11:48:00,82.4,65.0,29.84,WSW,245,0.0,0.0,56,0.00,,,0.00,654.03,Custom,2013-09-27 16:48:00,
2013-09-27 11:53:00,82.9,65.0,29.84,WSW,255,0.0,0.0,55,0.00,,,0.00,664.95,Custom,2013-09-27 16:53:00,
2013-09-27 11:58:00,83.2,65.0,29.84,WSW,257,0.0,0.0,55,0.00,,,0.00,669.24,Custom,2013-09-27 16:58:00,
2013-09-27 12:03:00,83.9,65.0,29.84,West,281,0.0,0.0,53,0.00,,,0.00,636.09,Custom,2013-09-27 17:03:00,
2013-09-27 12:08:00,83.7,64.0,29.84,WSW,257,0.0,0.0,52,0.00,,,0.00,654.42,Custom,2013-09-27 17:08:00,
2013-09-27 12:13:00,84.2,66.0,29.84,WSW,257,0.0,0.0,55,0.00,,,0.00,657.15,Custom,2013-09-27 17:13:00,
2013-09-27 12:18:00,84.5,65.0,29.84,WSW,241,0.0,0.0,52,0.00,,,0.00,657.54,Custom,2013-09-27 17:18:00,
2013-09-27 12:23:00,83.4,65.0,29.84,West,260,0.0,0.0,54,0.00,,,0.00,659.88,Custom,2013-09-27 17:23:00,
2013-09-27 12:28:00,84.6,66.0,29.83,West,262,0.0,0.0,53,0.00,,,0.00,660.66,Custom,2013-09-27 17:28:00,
2013-09-27 12:32:00,84.6,65.0,29.83,WSW,250,0.0,0.0,52,0.00,,,0.00,660.66,Custom,2013-09-27 17:32:00,
2013-09-27 12:37:00,85.1,66.0,29.83,WSW,244,0.0,0.0,53,0.00,,,0.00,659.88,Custom,2013-09-27 17:37:00,
2013-09-27 12:42:00,85.7,65.0,29.83,WSW,245,0.0,0.0,51,0.00,,,0.00,661.83,Custom,2013-09-27 17:42:00,
2013-09-27 12:47:00,85.6,65.0,29.83,WSW,248,0.0,0.0,50,0.00,,,0.00,661.44,Custom,2013-09-27 17:47:00,
2013-09-27 12:52:00,85.9,66.0,29.82,WSW,255,0.0,0.0,51,0.00,,,0.00,661.44,Custom,2013-09-27 17:52:00,
2013-09-27 12:57:00,86.2,66.0,29.82,West,271,0.0,0.0,52,0.00,,,0.00,674.7,Custom,2013-09-27 17:57:00,
2013-09-27 13:02:00,86.0,65.0,29.82,SW,224,0.0,0.0,50,0.00,,,0.00,675.48,Custom,2013-09-27 18:02:00,
2013-09-27 13:07:00,85.5,65.0,29.82,WSW,237,0.0,0.0,50,0.00,,,0.00,675.09,Custom,2013-09-27 18:07:00,
2013-09-27 13:12:00,86.5,65.0,29.81,West,266,0.0,0.0,50,0.00,,,0.00,675.48,Custom,2013-09-27 18:12:00,
2013-09-27 13:17:00,86.7,66.0,29.81,WSW,252,0.0,0.0,50,0.00,,,0.00,675.48,Custom,2013-09-27 18:17:00,
2013-09-27 13:22:00,88.4,67.0,29.81,WSW,254,0.0,0.0,49,0.00,,,0.00,677.43,Custom,2013-09-27 18:22:00,
2013-09-27 13:27:00,88.4,67.0,29.81,West,261,0.0,0.0,49,0.00,,,0.00,680.16,Custom,2013-09-27 18:27:00,
2013-09-27 13:32:00,87.5,65.0,29.81,West,278,0.0,0.0,48,0.00,,,0.00,682.11,Custom,2013-09-27 18:32:00,
2013-09-27 13:37:00,87.9,67.0,29.81,West,263,0.0,0.0,49,0.00,,,0.00,681.72,Custom,2013-09-27 18:37:00,
2013-09-27 13:42:00,87.7,65.0,29.81,West,261,0.0,0.0,48,0.00,,,0.00,682.11,Custom,2013-09-27 18:42:00,
2013-09-27 13:47:00,88.7,66.0,29.80,West,264,0.0,0.0,47,0.00,,,0.00,683.28,Custom,2013-09-27 18:47:00,
2013-09-27 13:52:00,88.4,65.0,29.80,WSW,257,0.0,0.0,47,0.00,,,0.00,686.79,Custom,2013-09-27 18:52:00,
2013-09-27 13:57:00,88.3,65.0,29.80,SW,235,0.0,0.0,46,0.00,,,0.00,686.4,Custom,2013-09-27 18:57:00,
2013-09-27 14:02:00,88.5,66.0,29.80,West,266,0.0,0.0,48,0.00,,,0.00,687.57,Custom,2013-09-27 19:02:00,
2013-09-27 14:07:00,88.5,66.0,29.80,West,260,0.0,0.0,47,0.00,,,0.00,685.62,Custom,2013-09-27 19:07:00,
2013-09-27 14:12:00,88.5,67.0,29.80,West,265,0.0,0.0,49,0.00,,,0.00,684.06,Custom,2013-09-27 19:12:00,
2013-09-27 14:17:00,88.8,65.0,29.79,West,264,0.0,0.0,45,0.00,,,0.00,683.28,Custom,2013-09-27 19:17:00,
2013-09-27 14:22:00,89.8,67.0,29.79,WNW,283,0.0,0.0,48,0.00,,,0.00,670.8,Custom,2013-09-27 19:22:00,
2013-09-27 14:27:00,89.0,65.0,29.78,WSW,255,0.0,0.0,45,0.00,,,0.00,669.24,Custom,2013-09-27 19:27:00,
2013-09-27 14:32:00,89.1,65.0,29.78,WSW,248,0.0,0.0,45,0.00,,,0.00,664.95,Custom,2013-09-27 19:32:00,
2013-09-27 14:37:00,89.5,66.0,29.79,WSW,243,0.0,0.0,46,0.00,,,0.00,655.2,Custom,2013-09-27 19:37:00,
2013-09-27 14:42:00,89.4,65.0,29.78,WSW,256,0.0,0.0,44,0.00,,,0.00,655.2,Custom,2013-09-27 19:42:00,
2013-09-27 14:47:00,87.6,63.0,29.78,West,263,0.0,0.0,44,0.00,,,0.00,668.07,Custom,2013-09-27 19:47:00,
2013-09-27 14:52:00,89.2,66.0,29.78,West,261,0.0,0.0,46,0.00,,,0.00,645.84,Custom,2013-09-27 19:52:00,
2013-09-27 14:57:00,89.7,64.0,29.78,WSW,258,0.0,0.0,43,0.00,,,0.00,655.59,Custom,2013-09-27 19:57:00,
2013-09-27 15:02:00,90.0,65.0,29.78,SSW,213,0.0,0.0,44,0.00,,,0.00,656.37,Custom,2013-09-27 20:02:00,
2013-09-27 15:07:00,88.4,64.0,29.78,West,275,0.0,0.0,44,0.00,,,0.00,177.45,Custom,2013-09-27 20:07:00,
2013-09-27 15:12:00,89.6,67.0,29.78,WSW,255,0.0,0.0,48,0.00,,,0.00,633.36,Custom,2013-09-27 20:12:00,
2013-09-27 15:17:00,89.1,65.0,29.78,SW,216,0.0,0.0,45,0.00,,,0.00,165.75,Custom,2013-09-27 20:17:00,
2013-09-27 15:22:00,87.5,65.0,29.77,WSW,245,0.0,0.0,46,0.00,,,0.00,433.29,Custom,2013-09-27 20:22:00,
2013-09-27 15:27:00,87.5,65.0,29.77,West,272,0.0,0.0,47,0.00,,,0.00,405.21,Custom,2013-09-27 20:27:00,
2013-09-27 15:32:00,89.1,64.0,29.76,West,274,0.0,0.0,44,0.00,,,0.00,570.96,Custom,2013-09-27 20:32:00,
2013-09-27 15:37:00,89.5,65.0,29.77,West,276,0.0,0.0,45,0.00,,,0.00,115.05,Custom,2013-09-27 20:37:00,
2013-09-27 15:42:00,89.3,65.0,29.77,West,260,0.0,0.0,45,0.00,,,0.00,80.34,Custom,2013-09-27 20:42:00,
2013-09-27 15:47:00,88.1,64.0,29.77,WSW,247,0.0,0.0,44,0.00,,,0.00,208.65,Custom,2013-09-27 20:47:00,
2013-09-27 15:52:00,88.4,63.0,29.76,West,265,0.0,0.0,43,0.00,,,0.00,485.55,Custom,2013-09-27 20:52:00,
2013-09-27 15:57:00,88.4,63.0,29.76,West,263,0.0,0.0,43,0.00,,,0.00,467.61,Custom,2013-09-27 20:57:00,
2013-09-27 16:02:00,88.5,63.0,29.76,WNW,283,0.0,0.0,43,0.00,,,0.00,461.76,Custom,2013-09-27 21:02:00,
2013-09-27 16:07:00,88.4,64.0,29.76,WSW,254,0.0,0.0,44,0.00,,,0.00,438.36,Custom,2013-09-27 21:07:00,
2013-09-27 16:12:00,88.4,63.0,29.76,WSW,253,0.0,0.0,43,0.00,,,0.00,426.27,Custom,2013-09-27 21:12:00,
2013-09-27 16:17:00,88.3,63.0,29.76,WSW,255,0.0,0.0,44,0.00,,,0.00,413.4,Custom,2013-09-27 21:17:00,
2013-09-27 16:22:00,87.8,63.0,29.76,WSW,254,0.0,0.0,43,0.00,,,0.00,77.61,Custom,2013-09-27 21:22:00,
2013-09-27 16:27:00,88.1,64.0,29.76,WSW,258,0.0,0.0,45,0.00,,,0.00,384.54,Custom,2013-09-27 21:27:00,
2013-09-27 16:32:00,88.2,65.0,29.76,WSW,250,0.0,0.0,46,0.00,,,0.00,366.6,Custom,2013-09-27 21:32:00,
2013-09-27 16:37:00,87.7,63.0,29.76,WSW,242,0.0,0.0,44,0.00,,,0.00,350.22,Custom,2013-09-27 21:37:00,
2013-09-27 16:42:00,87.5,63.0,29.76,West,262,0.0,0.0,44,0.00,,,0.00,312.78,Custom,2013-09-27 21:42:00,
2013-09-27 16:47:00,87.1,63.0,29.76,West,278,0.0,0.0,45,0.00,,,0.00,92.04,Custom,2013-09-27 21:47:00,
2013-09-27 16:52:00,86.2,64.0,29.76,West,267,0.0,0.0,48,0.00,,,0.00,114.66,Custom,2013-09-27 21:52:00,
2013-09-27 16:57:00,85.4,63.0,29.76,WSW,252,0.0,0.0,47,0.00,,,0.00,65.52,Custom,2013-09-27 21:57:00,
2013-09-27 17:02:00,85.1,64.0,29.76,SW,226,0.0,0.0,49,0.00,,,0.00,53.43,Custom,2013-09-27 22:02:00,
2013-09-27 17:07:00,84.8,64.0,29.76,WSW,258,0.0,0.0,50,0.00,,,0.00,117.78,Custom,2013-09-27 22:07:00,
2013-09-27 17:12:00,84.8,63.0,29.76,WSW,258,0.0,0.0,48,0.00,,,0.00,45.63,Custom,2013-09-27 22:12:00,
2013-09-27 17:17:00,84.6,64.0,29.76,WNW,288,0.0,0.0,49,0.00,,,0.00,43.68,Custom,2013-09-27 22:17:00,
2013-09-27 17:22:00,84.2,64.0,29.76,West,261,0.0,0.0,50,0.00,,,0.00,56.94,Custom,2013-09-27 22:22:00,
2013-09-27 17:27:00,83.9,64.0,29.76,SW,223,0.0,0.0,50,0.00,,,0.00,36.66,Custom,2013-09-27 22:27:00,
2013-09-27 17:32:00,83.7,63.0,29.76,WSW,241,0.0,0.0,50,0.00,,,0.00,52.26,Custom,2013-09-27 22:32:00,
2013-09-27 17:37:00,83.3,63.0,29.76,West,263,0.0,0.0,50,0.00,,,0.00,33.93,Custom,2013-09-27 22:37:00,
2013-09-27 17:42:00,83.1,64.0,29.76,WSW,250,0.0,0.0,52,0.00,,,0.00,32.37,Custom,2013-09-27 22:42:00,
2013-09-27 17:47:00,83.0,63.0,29.76,West,262,0.0,0.0,52,0.00,,,0.00,30.81,Custom,2013-09-27 22:47:00,
2013-09-27 17:52:00,82.7,63.0,29.76,SSW,205,0.0,0.0,51,0.00,,,0.00,28.08,Custom,2013-09-27 22:52:00,
2013-09-27 17:57:00,82.4,63.0,29.76,WSW,247,0.0,0.0,53,0.00,,,0.00,26.52,Custom,2013-09-27 22:57:00,
2013-09-27 18:02:00,82.2,64.0,29.76,West,261,0.0,0.0,53,0.00,,,0.00,25.74,Custom,2013-09-27 23:02:00,
2013-09-27 18:07:00,81.9,64.0,29.76,West,261,0.0,0.0,54,0.00,,,0.00,24.18,Custom,2013-09-27 23:07:00,
2013-09-27 18:12:00,81.8,64.0,29.76,SW,229,0.0,0.0,54,0.00,,,0.00,23.4,Custom,2013-09-27 23:12:00,
2013-09-27 18:17:00,81.6,64.0,29.76,West,262,0.0,0.0,55,0.00,,,0.00,21.45,Custom,2013-09-27 23:17:00,
2013-09-27 18:22:00,81.1,64.0,29.76,West,265,0.0,0.0,55,0.00,,,0.00,19.5,Custom,2013-09-27 23:22:00,
2013-09-27 18:27:00,80.7,64.0,29.76,SW,219,0.0,0.0,56,0.00,,,0.00,17.55,Custom,2013-09-27 23:27:00,
2013-09-27 18:32:00,80.3,64.0,29.76,WSW,258,0.0,0.0,57,0.00,,,0.00,13.65,Custom,2013-09-27 23:32:00,
2013-09-27 18:37:00,80.1,64.0,29.76,West,259,0.0,0.0,57,0.00,,,0.00,14.82,Custom,2013-09-27 23:37:00,
2013-09-27 18:42:00,79.8,64.0,29.76,West,273,0.0,0.0,58,0.00,,,0.00,12.87,Custom,2013-09-27 23:42:00,
2013-09-27 18:47:00,79.4,63.0,29.76,West,265,0.0,0.0,58,0.00,,,0.00,10.53,Custom,2013-09-27 23:47:00,
2013-09-27 18:52:00,79.4,63.0,29.75,West,277,0.0,0.0,58,0.00,,,0.00,8.58,Custom,2013-09-27 23:52:00,
2013-09-27 18:57:00,79.1,63.0,29.76,WNW,292,0.0,0.0,58,0.00,,,0.00,0,Custom,2013-09-27 23:57:00,
2013-09-27 19:02:00,78.7,63.0,29.75,West,276,0.0,0.0,59,0.00,,,0.00,0,Custom,2013-09-28 00:02:00,
2013-09-27 19:07:00,78.1,63.0,29.75,West,261,0.0,0.0,60,0.00,,,0.00,0,Custom,2013-09-28 00:07:00,
2013-09-27 19:12:00,78.0,63.0,29.76,WSW,249,0.0,0.0,60,0.00,,,0.00,0,Custom,2013-09-28 00:12:00,
2013-09-27 19:17:00,77.7,63.0,29.76,WSW,255,0.0,0.0,61,0.00,,,0.00,0,Custom,2013-09-28 00:17:00,
2013-09-27 19:22:00,77.2,63.0,29.76,West,277,0.0,0.0,61,0.00,,,0.00,0,Custom,2013-09-28 00:22:00,
2013-09-27 19:27:00,77.0,63.0,29.76,West,277,0.0,0.0,61,0.00,,,0.00,0,Custom,2013-09-28 00:27:00,
2013-09-27 19:32:00,77.0,63.0,29.76,West,273,0.0,0.0,62,0.00,,,0.00,0,Custom,2013-09-28 00:32:00,
2013-09-27 19:37:00,76.8,63.0,29.76,West,269,0.0,0.0,62,0.00,,,0.00,0,Custom,2013-09-28 00:37:00,
2013-09-27 19:42:00,76.4,63.0,29.76,WNW,289,0.0,0.0,63,0.00,,,0.00,0,Custom,2013-09-28 00:42:00,
2013-09-27 19:47:00,76.2,63.0,29.75,West,262,0.0,0.0,63,0.00,,,0.00,0,Custom,2013-09-28 00:47:00,
2013-09-27 19:52:00,76.1,63.0,29.76,West,275,0.0,0.0,63,0.00,,,0.00,0,Custom,2013-09-28 00:52:00,
2013-09-27 19:57:00,75.8,62.0,29.76,West,267,0.0,0.0,63,0.00,,,0.00,0,Custom,2013-09-28 00:57:00,
2013-09-27 20:02:00,75.4,62.0,29.76,West,267,0.0,0.0,64,0.00,,,0.00,0,Custom,2013-09-28 01:02:00,
2013-09-27 20:07:00,75.1,63.0,29.76,WSW,238,0.0,0.0,65,0.00,,,0.00,0,Custom,2013-09-28 01:07:00,
2013-09-27 20:12:00,74.7,62.0,29.76,WSW,242,0.0,0.0,65,0.00,,,0.00,0,Custom,2013-09-28 01:12:00,
2013-09-27 20:17:00,74.1,62.0,29.76,WSW,245,0.0,0.0,66,0.00,,,0.00,0,Custom,2013-09-28 01:17:00,
2013-09-27 20:22:00,74.1,63.0,29.76,WNW,299,0.0,0.0,67,0.00,,,0.00,0,Custom,2013-09-28 01:22:00,
2013-09-27 20:27:00,73.9,63.0,29.76,WSW,240,0.0,0.0,68,0.00,,,0.00,0,Custom,2013-09-28 01:27:00,
2013-09-27 20:32:00,73.8,63.0,29.76,WSW,242,0.0,0.0,69,0.00,,,0.00,0,Custom,2013-09-28 01:32:00,
2013-09-27 20:37:00,73.9,63.0,29.76,WSW,243,0.0,0.0,69,0.00,,,0.00,0,Custom,2013-09-28 01:37:00,
2013-09-27 20:42:00,73.6,63.0,29.76,WSW,246,0.0,0.0,69,0.00,,,0.00,0,Custom,2013-09-28 01:42:00,
2013-09-27 20:47:00,73.4,63.0,29.76,WSW,251,0.0,0.0,70,0.00,,,0.00,0,Custom,2013-09-28 01:47:00,
2013-09-27 20:52:00,73.4,63.0,29.76,WSW,252,0.0,0.0,70,0.00,,,0.00,0,Custom,2013-09-28 01:52:00,
2013-09-27 20:57:00,73.3,63.0,29.76,West,276,0.0,0.0,71,0.00,,,0.00,0,Custom,2013-09-28 01:57:00,
2013-09-27 21:02:00,73.2,63.0,29.76,WNW,296,0.0,0.0,71,0.00,,,0.00,0,Custom,2013-09-28 02:02:00,
2013-09-27 21:07:00,73.0,63.0,29.76,West,277,0.0,0.0,71,0.00,,,0.00,0,Custom,2013-09-28 02:07:00,
2013-09-27 21:12:00,72.8,63.0,29.76,West,279,0.0,0.0,72,0.00,,,0.00,0,Custom,2013-09-28 02:12:00,
2013-09-27 21:17:00,73.0,63.0,29.76,West,281,0.0,0.0,72,0.00,,,0.00,0,Custom,2013-09-28 02:17:00,
2013-09-27 21:22:00,73.0,64.0,29.76,WNW,282,0.0,0.0,72,0.00,,,0.00,0,Custom,2013-09-28 02:22:00,
2013-09-27 21:27:00,72.9,63.0,29.76,West,267,0.0,0.0,72,0.00,,,0.00,0,Custom,2013-09-28 02:27:00,
2013-09-27 21:32:00,72.9,63.0,29.77,West,277,0.0,0.0,72,0.00,,,0.00,0,Custom,2013-09-28 02:32:00,
2013-09-27 21:37:00,72.6,63.0,29.77,West,277,0.0,0.0,72,0.00,,,0.00,0,Custom,2013-09-28 02:37:00,
2013-09-27 21:42:00,72.6,63.0,29.77,West,269,0.0,0.0,73,0.00,,,0.00,0,Custom,2013-09-28 02:42:00,
2013-09-27 21:47:00,72.3,63.0,29.77,West,278,0.0,0.0,73,0.00,,,0.00,0,Custom,2013-09-28 02:47:00,
2013-09-27 21:52:00,72.2,63.0,29.77,West,278,0.0,0.0,73,0.00,,,0.00,0,Custom,2013-09-28 02:52:00,
2013-09-27 21:57:00,72.0,63.0,29.77,West,278,0.0,0.0,73,0.00,,,0.00,0,Custom,2013-09-28 02:57:00,
2013-09-27 22:02:00,72.0,63.0,29.77,WNW,295,0.0,0.0,74,0.00,,,0.00,0,Custom,2013-09-28 03:02:00,
2013-09-27 22:07:00,71.7,63.0,29.77,West,276,0.0,0.0,74,0.00,,,0.00,0,Custom,2013-09-28 03:07:00,
2013-09-27 22:12:00,71.5,63.0,29.77,West,279,0.0,0.0,75,0.00,,,0.00,0,Custom,2013-09-28 03:12:00,
2013-09-27 22:17:00,71.4,63.0,29.77,West,277,0.0,0.0,75,0.00,,,0.00,0,Custom,2013-09-28 03:17:00,
2013-09-27 22:22:00,71.3,63.0,29.77,West,266,0.0,0.0,75,0.00,,,0.00,0,Custom,2013-09-28 03:22:00,
2013-09-27 22:27:00,71.1,63.0,29.77,WSW,257,0.0,0.0,75,0.00,,,0.00,0,Custom,2013-09-28 03:27:00,
2013-09-27 22:32:00,70.7,62.0,29.77,WSW,254,0.0,0.0,75,0.00,,,0.00,0,Custom,2013-09-28 03:32:00,
2013-09-27 22:37:00,70.9,63.0,29.77,WSW,253,0.0,0.0,76,0.00,,,0.00,0,Custom,2013-09-28 03:37:00,
2013-09-27 22:42:00,70.9,63.0,29.77,WSW,239,0.0,0.0,76,0.00,,,0.00,0,Custom,2013-09-28 03:42:00,
2013-09-27 22:47:00,70.9,63.0,29.77,WSW,246,0.0,0.0,76,0.00,,,0.00,0,Custom,2013-09-28 03:47:00,
2013-09-27 22:52:00,70.7,63.0,29.77,WSW,238,0.0,0.0,76,0.00,,,0.00,0,Custom,2013-09-28 03:52:00,
2013-09-27 22:57:00,70.2,62.0,29.77,WSW,253,0.0,0.0,76,0.00,,,0.00,0,Custom,2013-09-28 03:57:00,
2013-09-27 23:01:00,70.1,62.0,29.77,West,277,0.0,0.0,77,0.00,,,0.00,0,Custom,2013-09-28 04:01:00,
2013-09-27 23:02:00,70.1,63.0,29.76,WSW,256,0.0,0.0,77,0.00,,,0.00,0,Custom,2013-09-28 04:02:00,
2013-09-27 23:03:00,70.0,62.0,29.76,WSW,256,0.0,0.0,77,0.00,,,0.00,0,Custom,2013-09-28 04:03:00,
2013-09-27 23:05:00,70.0,62.0,29.76,West,281,0.0,0.0,77,0.00,,,0.00,0,Custom,2013-09-28 04:05:00,
2013-09-27 23:10:00,70.0,62.0,29.76,West,266,0.0,0.0,77,0.00,,,0.00,0,Custom,2013-09-28 04:10:00,
2013-09-27 23:15:00,70.1,63.0,29.76,West,275,0.0,0.0,77,0.00,,,0.00,0,Custom,2013-09-28 04:15:00,
2013-09-27 23:20:00,69.8,62.0,29.76,WSW,253,0.0,0.0,77,0.00,,,0.00,0,Custom,2013-09-28 04:20:00,
2013-09-27 23:25:00,69.7,62.0,29.76,WSW,257,0.0,0.0,78,0.00,,,0.00,0,Custom,2013-09-28 04:25:00,
2013-09-27 23:30:00,69.7,62.0,29.76,WNW,283,0.0,0.0,78,0.00,,,0.00,0,Custom,2013-09-28 04:30:00,
2013-09-27 23:35:00,69.5,62.0,29.76,WNW,303,0.0,0.0,78,0.00,,,0.00,0,Custom,2013-09-28 04:35:00,
2013-09-27 23:40:00,69.5,62.0,29.76,WSW,239,0.0,0.0,78,0.00,,,0.00,0,Custom,2013-09-28 04:40:00,
2013-09-27 23:45:00,69.5,62.0,29.76,West,277,0.0,0.0,78,0.00,,,0.00,0,Custom,2013-09-28 04:45:00,
2013-09-27 23:50:00,69.4,62.0,29.75,West,265,0.0,0.0,78,0.00,,,0.00,0,Custom,2013-09-28 04:50:00,
2013-09-27 23:55:00,69.2,62.0,29.75,West,271,0.0,0.0,78,0.00,,,0.00,0,Custom,2013-09-28 04:55:00,